Nashville, TN

5:21 AM CST on November 14, 2019 (GMT -0600)
Nashville International

Weather History for KBNA - May, 2019

Change the Weather History Date:

Sunday, May 19, 2019

  Actual Average Record
Temperature  
Mean Temperature 76 °F 68 °F  
Max Temperature 82 °F 79 °F 95 °F (1962)
Min Temperature 68 °F 58 °F 40 °F (1976)
Degree Days  
Heating Degree Days 0    
Month to date heating degree days 27  
Since 1 July heating degree days 3220  
Cooling Degree Days 10    
Month to date cooling degree days 95  
Year to date cooling degree days 154  
Growing Degree Days 26 (Base 50)    
Moisture  
Dew Point 62 °F    
Average Humidity 67    
Maximum Humidity 87    
Minimum Humidity 43    
Precipitation  
Precipitation 0.06 in 0.16 in 2.44 in (1957)
Month to date precipitation 1.57 3.55  
Year to date precipitation 29.45 19.35  
Sea Level Pressure  
Sea Level Pressure 29.90 in    
Wind  
Wind Speed 10 mph ()    
Max Wind Speed 25 mph    
Max Gust Speed 31 mph    
Visibility 10.0 miles    
Events      
T = Trace of Precipitation, MM = Missing Value Source: Averaged Metar Reports

Daily Weather History Graph

Daily Weather History Graph

Search for Another Location

Airport or City:

Astronomy

May. 19, 2019 Rise Set
Actual Time 5:37 AM CDT 7:48 PM CDT
Civil Twilight 5:09 AM CDT 8:17 PM CDT
Nautical Twilight 4:33 AM CDT 8:53 PM CDT
Astronomical Twilight 3:55 AM CDT 9:31 PM CDT
Moon 8:48 PM CDT (5/19) 6:21 AM CDT (5/19)
Length of Visible Light 15h 08m
Length of Day
14h 11m
Full, 99% of the Moon is Illuminated
May 19
Full
May 26
Last Quarter
Jun 3
New
Jun 10
First Quarter
Jun 17
Full

Hourly Weather History & Observations

Time (CDT) Temp. Heat Index Dew Point Humidity Pressure Visibility Wind Dir Wind Speed Gust Speed Precip Events Conditions
12:53 AM 75.9 °F - 61.0 °F 60% 29.88 in 10.0 mi South 12.7 mph - N/A   Mostly Cloudy
1:53 AM - - - N/A% 29.88 in 10.0 mi South 9.2 mph - N/A   Mostly Cloudy
2:53 AM 75.0 °F - 60.1 °F 60% 29.88 in 10.0 mi South 11.5 mph - N/A   Mostly Cloudy
3:53 AM 73.9 °F - 59.0 °F 59% 29.89 in 10.0 mi SSW 8.1 mph - N/A   Mostly Cloudy
4:53 AM 71.1 °F - 60.1 °F 68% 29.88 in 10.0 mi South 5.8 mph - N/A   Mostly Cloudy
5:53 AM 71.1 °F - 60.1 °F 68% 29.88 in 10.0 mi SSE 8.1 mph - N/A   Mostly Cloudy
6:53 AM 73.0 °F - 61.0 °F 66% 29.89 in 10.0 mi South 13.8 mph - N/A   Overcast
7:53 AM 73.0 °F - 60.1 °F 64% 29.90 in 10.0 mi South 13.8 mph - N/A   Overcast
8:53 AM 73.9 °F - 60.1 °F 62% 29.90 in 10.0 mi South 15.0 mph - N/A   Overcast
9:53 AM 75.0 °F - 59.0 °F 57% 29.91 in 10.0 mi South 15.0 mph - N/A   Overcast
10:53 AM 75.9 °F - 57.9 °F 54% 29.91 in 10.0 mi South 11.5 mph - N/A   Overcast
11:53 AM 78.1 °F - 57.9 °F 50% 29.89 in 10.0 mi South 13.8 mph - N/A   Overcast
12:53 PM 82.0 °F 82.0 °F 57.9 °F 44% 29.89 in 10.0 mi South 15.0 mph 25.3 mph N/A   Overcast
1:53 PM 79.0 °F - 59.0 °F 50% 29.89 in 10.0 mi SSW 17.3 mph 31.1 mph N/A   Overcast
2:53 PM 78.1 °F - 61.0 °F 56% 29.89 in 10.0 mi SSW 17.3 mph 27.6 mph N/A   Overcast
3:53 PM 73.0 °F - 68.0 °F 84% 29.90 in 10.0 mi South 10.4 mph - 0.06 in   Overcast
4:53 PM 73.9 °F - 66.0 °F 76% 29.91 in 10.0 mi SSW 9.2 mph - N/A   Overcast
5:53 PM 75.9 °F - 66.9 °F 74% 29.89 in 10.0 mi South 10.4 mph - N/A   Mostly Cloudy
6:53 PM 75.9 °F - 66.9 °F 74% 29.89 in 10.0 mi South 9.2 mph - N/A   Mostly Cloudy
7:53 PM 73.9 °F - 66.9 °F 79% 29.90 in 10.0 mi SSE 10.4 mph - N/A   Scattered Clouds
8:53 PM 72.0 °F - 66.0 °F 81% 29.92 in 10.0 mi South 6.9 mph - N/A   Scattered Clouds
9:53 PM 72.0 °F - 64.9 °F 78% 29.94 in 10.0 mi SSW 9.2 mph - N/A   Scattered Clouds
10:53 PM 71.1 °F - 64.9 °F 81% 29.94 in 10.0 mi SSW 8.1 mph - N/A   Partly Cloudy
11:53 PM 68.0 °F - 64.0 °F 87% 29.95 in 10.0 mi South 6.9 mph - N/A   Clear